Time_in_sec,Mx,My,Mz
1326902527.86956787,0.17230818,-0.43068317,-0.43115133
1326902527.91693401,0.17158318,-0.43209419,-0.43068096
1326902527.97755337,0.17332394,-0.43328214,-0.43145329
1326902528.01789975,0.17421396,-0.43129140,-0.43116969
1326902528.06842113,0.17370652,-0.43340406,-0.43143192
1326902528.11650586,0.17351614,-0.43339068,-0.43256596
1326902528.16863823,0.17351712,-0.43256727,-0.43244681
1326902528.21678162,0.17393252,-0.43031946,-0.43381369
1326902528.26955128,0.17257877,-0.43480697,-0.43135777
1326902528.31754470,0.17236157,-0.43208238,-0.43263707
1326902528.36952233,0.17300032,-0.43244267,-0.43260026
1326902528.41706109,0.17453523,-0.43069571,-0.43215552
1326902528.46965289,0.17341319,-0.43414554,-0.42769662
1326902528.51670456,0.17367144,-0.43339738,-0.43205816
1326902528.56955123,0.17381896,-0.43314445,-0.43392491
1326902528.62916088,0.17440322,-0.43306941,-0.43027312
1326902528.66863775,0.17380248,-0.43104634,-0.43169293
1326902528.71750164,0.17330009,-0.43400636,-0.42970145
1326902528.76899362,0.17417569,-0.43563741,-0.43239003
1326902528.82116032,0.17348476,-0.43197283,-0.43295214
1326902528.86950922,0.17362504,-0.43280026,-0.43281397
1326902528.91839623,0.17485346,-0.43271071,-0.43125033
1326902528.96964741,0.17214896,-0.43316936,-0.42976907
1326902529.02076030,0.17437650,-0.43021771,-0.43266681
1326902529.07263350,0.17379007,-0.43141976,-0.42969319
1326902529.12091088,0.17495890,-0.43164903,-0.43150181
1326902529.16950583,0.17354693,-0.43200749,-0.42957729
1326902529.21692777,0.17489061,-0.43093011,-0.43263426
1326902529.26954436,0.17368095,-0.43309188,-0.42731503
1326902529.31764746,0.17340307,-0.43245074,-0.43220401
1326902529.36853290,0.17336173,-0.43270102,-0.43070614
1326902529.42055702,0.17418261,-0.43037489,-0.43106943
1326902529.46863341,0.17225140,-0.43213731,-0.42953786
1326902529.51750827,0.17362507,-0.43344137,-0.43007925
1326902529.56851912,0.17362446,-0.43144155,-0.42984357
1326902529.62080288,0.17208754,-0.43095270,-0.43005428
1326902529.66950655,0.17340739,-0.43223909,-0.42983288
1326902529.71733332,0.17427428,-0.43203163,-0.42791489
1326902529.76967120,0.17411248,-0.43416435,-0.42653522
1326902529.81751108,0.17338227,-0.43056428,-0.43234316
1326902529.86955380,0.17496827,-0.43308553,-0.42924377
1326902529.91750193,0.17436989,-0.43249762,-0.42853081
1326902529.96950102,0.17166562,-0.43187454,-0.42917973
1326902530.01720309,0.17462817,-0.43014792,-0.42815876
1326902530.06951499,0.17423564,-0.43249491,-0.42866290
1326902530.11666226,0.17337945,-0.43129253,-0.43021557
1326902530.16953969,0.17341785,-0.43271172,-0.42970416
1326902530.22953248,0.17543179,-0.43167046,-0.42985308
1326902530.26855445,0.17391203,-0.43085468,-0.42744309
1326902530.31750631,0.17322920,-0.43293399,-0.43083650
1326902530.36959529,0.17408983,-0.43378425,-0.42916116
1326902530.41767430,0.17423317,-0.43170124,-0.42806140
1326902530.46952438,0.17258528,-0.43439013,-0.42838073
1326902530.51824498,0.17384712,-0.43204921,-0.42820454
1326902530.56853986,0.17302768,-0.43297139,-0.42936558
1326902530.62052035,0.17473325,-0.43146977,-0.42816103
1326902530.66934824,0.17496219,-0.43182054,-0.42864564
1326902530.71750641,0.17377743,-0.43287492,-0.42556328
1326902530.76946163,0.17495720,-0.43061262,-0.42913675
1326902530.81756091,0.17432460,-0.43013588,-0.42904916
1326902530.86952162,0.17346610,-0.43180245,-0.42646152
1326902530.91750169,0.17316252,-0.43259117,-0.42971870
1326902530.96863508,0.17408812,-0.43274784,-0.42679611
1326902531.01750088,0.17515393,-0.43022856,-0.43237528
1326902531.06853962,0.17297032,-0.43248263,-0.42860600
1326902531.11764264,0.17338462,-0.43199944,-0.43021035
1326902531.16852593,0.17413312,-0.43188715,-0.43042070
1326902531.21652746,0.17489581,-0.43003550,-0.42789546
1326902531.27355003,0.17343619,-0.43250272,-0.42708254
1326902531.31654143,0.17351271,-0.43211862,-0.43020266
1326902531.37245369,0.17421190,-0.43227792,-0.42679277
1326902531.41761589,0.17319784,-0.43071538,-0.42885587
1326902531.46953750,0.17304957,-0.43309319,-0.42898905
1326902531.51750612,0.17365126,-0.43335155,-0.42733210
1326902531.56908178,0.17332256,-0.43260610,-0.43085033
1326902531.62156940,0.17443788,-0.43049538,-0.43105489
1326902531.66952109,0.17369729,-0.43166783,-0.43083677
1326902531.72063208,0.17421091,-0.43440253,-0.42879277
1326902531.76953816,0.17394899,-0.43145761,-0.42857769
1326902531.81753159,0.17429161,-0.42884359,-0.43119910
1326902531.86853743,0.17313828,-0.43261671,-0.42961177
1326902531.91750765,0.17355002,-0.43083924,-0.43110013
1326902531.96954727,0.17404543,-0.43204126,-0.42919263
1326902532.01736903,0.17506509,-0.43164638,-0.43187073
1326902532.06953382,0.17325382,-0.43246803,-0.43033898
1326902532.11757445,0.17447717,-0.43153110,-0.43102905
1326902532.16898894,0.17414384,-0.43047729,-0.43005538
1326902532.21761179,0.17371830,-0.43103030,-0.43319592
1326902532.26925397,0.17358127,-0.43239722,-0.42846602
1326902532.31751752,0.17537999,-0.43086764,-0.43012792
1326902532.37680411,0.17476845,-0.43213660,-0.43214923
1326902532.41758895,0.17410204,-0.42988902,-0.43245032
1326902532.47353554,0.17370677,-0.43296355,-0.43082723
1326902532.52420354,0.17330584,-0.43399164,-0.43358794
1326902532.56863976,0.17446482,-0.43226498,-0.43079144
1326902532.61752701,0.17447996,-0.43130398,-0.43266985
1326902532.66865897,0.17411311,-0.43236136,-0.43255731
1326902532.71750784,0.17268051,-0.43177474,-0.43089059
1326902532.76872301,0.17361462,-0.43296885,-0.43020797
1326902532.82151985,0.17339490,-0.42989153,-0.43148956
1326902532.86951160,0.17388785,-0.43059975,-0.43183270
1326902532.91669345,0.17439914,-0.43189958,-0.43192104
1326902532.96949673,0.17250827,-0.43343446,-0.42963988
1326902533.01664639,0.17405124,-0.42964411,-0.43332863
1326902533.06850910,0.17392366,-0.43166521,-0.43132401
1326902533.11751318,0.17520002,-0.43226781,-0.43125132
1326902533.16972327,0.17399563,-0.43177372,-0.43231806
1326902533.21653438,0.17447393,-0.42967883,-0.43030965
1326902533.26957583,0.17440836,-0.43427679,-0.42978173
1326902533.31818986,0.17322525,-0.43190464,-0.43023628
1326902533.36850786,0.17286481,-0.43176413,-0.43212911
1326902533.41651821,0.17510970,-0.43076709,-0.42814574
1326902533.46942329,0.17288017,-0.43402484,-0.42986548
1326902533.51754451,0.17321812,-0.43284431,-0.43047976
1326902533.56850433,0.17407534,-0.43214175,-0.43093804
1326902533.61738038,0.17313753,-0.43155789,-0.42949438
1326902533.67295742,0.17313753,-0.43155789,-0.42949438
1326902533.71756816,0.17379275,-0.43227413,-0.42920455
1326902533.76858664,0.17266266,-0.43332335,-0.42913303
1326902533.82938862,0.17385979,-0.42979383,-0.42996728
1326902533.86853290,0.17520911,-0.42968169,-0.43076953
1326902533.91657043,0.17432076,-0.43298900,-0.42892158
1326902533.97765088,0.17237909,-0.43427896,-0.42751870
1326902534.01754832,0.17361484,-0.43028626,-0.42760509
1326902534.06863761,0.17519003,-0.43313497,-0.42700139
1326902534.11663485,0.17365816,-0.43429390,-0.42732516
1326902534.17263484,0.17367452,-0.43062764,-0.42884788
1326902534.21654296,0.17425187,-0.43027040,-0.42981809
1326902534.26953149,0.17307392,-0.43370879,-0.42636189
1326902534.31750393,0.17393556,-0.43265417,-0.42669752
1326902534.36910796,0.17370343,-0.43075079,-0.42834613
1326902534.41654611,0.17364290,-0.43109217,-0.42947051
1326902534.46956086,0.17319521,-0.43194458,-0.42624286
1326902534.51753926,0.17452054,-0.43349752,-0.42541191
1326902534.56864476,0.17271200,-0.43145064,-0.42801991
1326902534.61752820,0.17356725,-0.43239453,-0.42871648
1326902534.66863108,0.17448512,-0.43040958,-0.42793205
1326902534.71751213,0.17409611,-0.43242663,-0.42606634
1326902534.76851058,0.17390864,-0.43168518,-0.42932728
1326902534.82166243,0.17430870,-0.43133989,-0.42893374
1326902534.86896038,0.17334101,-0.43145612,-0.42811099
1326902534.92166376,0.17447983,-0.43144441,-0.43042186
1326902534.96854377,0.17500599,-0.43206415,-0.42789257
1326902535.02861309,0.17397901,-0.43061706,-0.43020481
1326902535.06966305,0.17475897,-0.43004027,-0.42979249
1326902535.11753631,0.17489639,-0.43239617,-0.42989352
1326902535.16949201,0.17342246,-0.43286034,-0.42909551
1326902535.21753955,0.17345443,-0.43037337,-0.43048432
1326902535.26950431,0.17281976,-0.43262461,-0.42850530
1326902535.31683826,0.17434376,-0.43214715,-0.43067393
1326902535.36886978,0.17462979,-0.43168536,-0.43003762
1326902535.41749477,0.17430870,-0.43133989,-0.42893374
1326902535.46864438,0.17436567,-0.43226895,-0.43029737
1326902535.51669383,0.17254874,-0.43226585,-0.42877200
1326902535.56872702,0.17280169,-0.43095154,-0.43088982
1326902535.62167406,0.17435792,-0.43120879,-0.43030518
1326902535.66869068,0.17440158,-0.43239340,-0.42967039
1326902535.72064805,0.17238475,-0.43202221,-0.42940667
1326902535.76871157,0.17451501,-0.43051007,-0.42967746
1326902535.81752491,0.17567733,-0.43099618,-0.42936206
1326902535.86854029,0.17480277,-0.43028387,-0.42903942
1326902535.91751528,0.17452818,-0.43119553,-0.43179417
1326902535.96851540,0.17457086,-0.43240276,-0.42891225
1326902536.01663184,0.17365177,-0.43118864,-0.43159157
1326902536.07355833,0.17342369,-0.43095568,-0.43110609
1326902536.11655879,0.17481852,-0.43132269,-0.43115354
1326902536.16853046,0.17421225,-0.43075624,-0.42831880
1326902536.21754980,0.17535478,-0.43013424,-0.43275592
1326902536.26856971,0.17402010,-0.43144831,-0.42957264
1326902536.31750488,0.17374624,-0.43261817,-0.43007851
1326902536.36955070,0.17427304,-0.43013400,-0.43169042
1326902536.41664815,0.17444305,-0.43120217,-0.43104967
1326902536.46781945,0.17542636,-0.43146461,-0.42937225
1326902536.51946378,0.17343058,-0.43189803,-0.43109915
1326902536.56854010,0.17434242,-0.42988908,-0.43268710
1326902536.61751151,0.17489922,-0.43166810,-0.43202066
1326902536.66945004,0.17409477,-0.43096915,-0.43044582
1326902536.71762967,0.17329021,-0.43201178,-0.43135557
1326902536.76877236,0.17344902,-0.43154866,-0.43072608
1326902536.81737471,0.17580910,-0.43130565,-0.43384689
1326902536.86951351,0.17425987,-0.43024912,-0.43194002
1326902536.91756558,0.17429470,-0.43213782,-0.43155047
1326902536.96925592,0.17393066,-0.43166655,-0.43119878
1326902537.01760626,0.17471161,-0.43106711,-0.43303359
1326902537.06952929,0.17380089,-0.43211240,-0.43357450
1326902537.11751318,0.17464654,-0.43190098,-0.43203259
1326902537.16950297,0.17477718,-0.43237352,-0.43202227
1326902537.21769118,0.17497131,-0.43003500,-0.43053016
1326902537.26951623,0.17338493,-0.43235987,-0.43197224
1326902537.31754112,0.17441919,-0.43272680,-0.43166450
1326902537.36964917,0.17349395,-0.43162915,-0.43446818
1326902537.41755128,0.17352569,-0.43022364,-0.43372726
1326902537.46913743,0.17461221,-0.43215254,-0.43040979
1326902537.51754093,0.17298931,-0.43235311,-0.43224317
1326902537.56851768,0.17335284,-0.43068412,-0.43460718
1326902537.61727810,0.17444332,-0.43092129,-0.43554571
1326902537.67352414,0.17397547,-0.43268809,-0.43505916
1326902537.72166586,0.17413698,-0.43163732,-0.43430880
1326902537.76855874,0.17412296,-0.43163463,-0.43455926
1326902537.82100081,0.17547682,-0.43022943,-0.43512058
1326902537.86954069,0.17260365,-0.43147919,-0.43676403
1326902537.91749072,0.17569235,-0.43177679,-0.43372503
1326902537.96951556,0.17367381,-0.43197060,-0.43582934
1326902538.01751447,0.17494440,-0.43066719,-0.43789250
1326902538.06957769,0.17337930,-0.43031344,-0.43635607
1326902538.11685491,0.17397730,-0.43198267,-0.43493915
1326902538.16950226,0.17352386,-0.43172964,-0.43621358
1326902538.21690106,0.17535159,-0.42938221,-0.43725544
1326902538.26857352,0.17502472,-0.43223447,-0.43438184
1326902538.31751490,0.17474042,-0.43293184,-0.43501642
1326902538.36855602,0.17522931,-0.43116906,-0.43512732
1326902538.42066526,0.17521258,-0.43175402,-0.43549865
1326902538.46952271,0.17248750,-0.43314958,-0.43451157
1326902538.51756907,0.17399551,-0.43271473,-0.43243635
1326902538.56883454,0.17470376,-0.43174857,-0.43552598
1326902538.61753368,0.17408718,-0.43136975,-0.43743423
1326902538.66965604,0.17499322,-0.43175796,-0.43488622
1326902538.71750712,0.17370358,-0.43221152,-0.43532673
1326902538.76873922,0.17350514,-0.43316048,-0.43445691
1326902538.81664300,0.17575473,-0.43153057,-0.43484694
1326902538.86954379,0.17435819,-0.43172851,-0.43716753
1326902538.91665316,0.17542677,-0.43104333,-0.43611628
1326902538.96854472,0.17519855,-0.43175137,-0.43574908
1326902539.01750088,0.17476122,-0.42971414,-0.43878281
1326902539.06858325,0.17660752,-0.43118003,-0.43542781
1326902539.11656976,0.17505461,-0.43153438,-0.43376094
1326902539.16950750,0.17496432,-0.43243542,-0.43775424
1326902539.21655965,0.17511810,-0.43032449,-0.43701172
1326902539.26955962,0.17543794,-0.43177405,-0.43373871
1326902539.31654954,0.17414942,-0.43206453,-0.43867439
1326902539.36857963,0.17622063,-0.43141019,-0.43557179
1326902539.41750193,0.17374088,-0.43029088,-0.43895838
1326902539.46954131,0.17278166,-0.43172547,-0.43587893
1326902539.51766276,0.17454666,-0.43244731,-0.43615371
1326902539.56951880,0.17508808,-0.43116504,-0.43538460
1326902539.61685848,0.17580912,-0.43210623,-0.43621320
1326902539.66949701,0.17449598,-0.43126136,-0.43691373
1326902539.71655464,0.17538801,-0.43244752,-0.43698242
1326902539.76928878,0.17491511,-0.43256652,-0.43638277
1326902539.82872820,0.17560318,-0.43091357,-0.43748093
1326902539.86956930,0.17389441,-0.43006197,-0.43845239
1326902539.91734266,0.17604496,-0.43339935,-0.43669087
1326902539.96952844,0.17178924,-0.43404916,-0.43803817
1326902540.01651692,0.17511651,-0.42994848,-0.43926147
1326902540.06951022,0.17430283,-0.43277666,-0.43828669
1326902540.11664510,0.17446436,-0.43172589,-0.43753636
1326902540.16927934,0.17531715,-0.43137535,-0.43811724
1326902540.21750140,0.17455995,-0.43219176,-0.43815216
1326902540.26958704,0.17350441,-0.43210167,-0.43433949
1326902540.31715488,0.17454776,-0.43068308,-0.43591627
1326902540.36916351,0.17512314,-0.43197227,-0.43712479
1326902540.42055345,0.17390388,-0.43135771,-0.43844283
1326902540.46959519,0.17356421,-0.43230265,-0.43783030
1326902540.51745534,0.17415261,-0.43281657,-0.43417490
1326902540.56965971,0.17474683,-0.43173394,-0.43702179
1326902540.61749840,0.17471705,-0.43149301,-0.43752441
1326902540.66864538,0.17493998,-0.43101922,-0.43801510
1326902540.72101521,0.17574489,-0.43305787,-0.43521133
1326902540.76854849,0.17450987,-0.43140447,-0.43441525
1326902540.82166123,0.17376363,-0.43053046,-0.43858096
1326902540.86934114,0.17466082,-0.43082219,-0.43391189
1326902540.92156291,0.17409320,-0.43219429,-0.43742815
1326902540.96863914,0.17293876,-0.43182734,-0.43761748
1326902541.01784778,0.17478728,-0.43056533,-0.43615392
1326902541.06853867,0.17414671,-0.43185160,-0.43642899
1326902541.11688113,0.17450213,-0.43114492,-0.43678936
1326902541.16968274,0.17481251,-0.43209931,-0.43589219
1326902541.22062254,0.17301172,-0.43111259,-0.43849242
1326902541.26737571,0.17496234,-0.43248069,-0.43325996
1326902541.31756115,0.17459674,-0.43243399,-0.43752432
1326902541.36858678,0.17460915,-0.43126008,-0.43715733
1326902541.41752815,0.17553994,-0.43104202,-0.43635991
1326902541.46876884,0.17402984,-0.43326375,-0.43642542
1326902541.51772022,0.17534900,-0.43413258,-0.43335253
1326902541.56859231,0.17453215,-0.43030438,-0.43841648
1326902541.61766791,0.17319945,-0.43077257,-0.43736118
1326902541.66951942,0.17472763,-0.43102449,-0.43727744
1326902541.71754050,0.17304026,-0.43325818,-0.43597919
1326902541.76880336,0.17558350,-0.43316764,-0.43584338
1326902541.81781483,0.17461789,-0.43149698,-0.43703038
1326902541.86957836,0.17447482,-0.43219838,-0.43740764
1326902541.91758370,0.17498635,-0.43161619,-0.43725944
1326902541.96949935,0.17471938,-0.43292785,-0.43539208
1326902542.01665139,0.17285991,-0.43077648,-0.43663037
1326902542.06952500,0.17406601,-0.43150619,-0.43556190
1326902542.11778545,0.17434219,-0.43257171,-0.43528995
1326902542.16951323,0.17280196,-0.43067065,-0.43538585
1326902542.21752787,0.17549972,-0.43032858,-0.43699121
1326902542.26966429,0.17423861,-0.43292773,-0.43491852
1326902542.31750655,0.17493601,-0.43271095,-0.43375909
1326902542.36966443,0.17429323,-0.43162137,-0.43604824
1326902542.41755867,0.17400904,-0.43057713,-0.43419823
1326902542.47355342,0.17347008,-0.43315381,-0.43508300
1326902542.51664639,0.17191988,-0.43372110,-0.43566155
1326902542.56862760,0.17583396,-0.42975834,-0.43547922
1326902542.61699367,0.17509152,-0.43163621,-0.43538111
1326902542.66946483,0.17465726,-0.43209264,-0.43639991
1326902542.71750808,0.17321198,-0.43376136,-0.43297040
1326902542.76937008,0.17412628,-0.43304682,-0.43467405
1326902542.81656790,0.17424501,-0.43172982,-0.43692392
1326902542.87752867,0.17433015,-0.43172318,-0.43766841
1326902542.91732430,0.17570060,-0.42987344,-0.43561041
1326902542.96849728,0.17457716,-0.43294647,-0.43340221
1326902543.01797771,0.17420639,-0.43219301,-0.43767178
1326902543.06922150,0.17439498,-0.43197078,-0.43653968
1326902543.11654186,0.17480636,-0.43221578,-0.43601656
1326902543.16659164,0.17551632,-0.43068463,-0.43673816
1326902543.21718001,0.17557783,-0.43032062,-0.43786094
1326902543.26951694,0.17447284,-0.43304425,-0.43527967
1326902543.31714010,0.17393710,-0.43206981,-0.43793675
1326902543.37250924,0.17496173,-0.43128145,-0.43539056
1326902543.41749406,0.17444603,-0.43113425,-0.43779114
1326902543.46862912,0.17458984,-0.43149164,-0.43753126
1326902543.51750493,0.17378503,-0.43361574,-0.43631124
1326902543.56851530,0.17573899,-0.43209288,-0.43746540
1326902543.62173128,0.17436434,-0.43161204,-0.43704316
1326902543.66905522,0.17421365,-0.43031231,-0.43730998
1326902543.71764851,0.17302795,-0.43349111,-0.43622789
1326902543.76971436,0.17531088,-0.43163225,-0.43599355
1326902543.82091713,0.17552420,-0.43160436,-0.43897837
1326902543.86953950,0.17498106,-0.43185046,-0.43738294
1326902543.91750383,0.17416073,-0.43185425,-0.43617854
1326902543.96950531,0.17295080,-0.43267587,-0.43523905
1326902544.01757550,0.17460044,-0.43182373,-0.43965057
1326902544.06950665,0.17364576,-0.43196526,-0.43633023
1326902544.12168002,0.17460300,-0.43137652,-0.43728167
1326902544.16968679,0.17471519,-0.43139786,-0.43527815
1326902544.21750855,0.17511982,-0.43056008,-0.43700999
1326902544.26857972,0.17279126,-0.43208018,-0.43575111
1326902544.31752563,0.17558116,-0.43173280,-0.43797573
1326902544.36972499,0.17480844,-0.42962831,-0.43565997
1326902544.42165136,0.17557070,-0.43045971,-0.43573812
1326902544.46951413,0.17325185,-0.43219408,-0.43659943
1326902544.51706839,0.17289644,-0.43290079,-0.43623906
1326902544.56853747,0.17374136,-0.43243113,-0.43694603
1326902544.61749792,0.17380556,-0.43067890,-0.43558162
1326902544.66854405,0.17451873,-0.43150097,-0.43653631
1326902544.71749640,0.17469366,-0.43435735,-0.43376061
1326902544.76860785,0.17465124,-0.43126807,-0.43640599
1326902544.81662917,0.17569889,-0.43043843,-0.43797845
1326902544.86956263,0.17379241,-0.43079403,-0.43583119
1326902544.91738510,0.17520729,-0.43198827,-0.43562213
1326902544.96883392,0.17395641,-0.43183821,-0.43756282
1326902545.01768064,0.17481090,-0.43092272,-0.43577567
1326902545.06970406,0.17409320,-0.43219429,-0.43742815
1326902545.11649799,0.17551067,-0.43374193,-0.43721649
1326902545.16870522,0.17394839,-0.43185952,-0.43544090
1326902545.21693993,0.17418830,-0.42971933,-0.43768999
1326902545.26951361,0.17444836,-0.43256909,-0.43565878
1326902545.31653094,0.17364663,-0.43208307,-0.43632936
1326902545.36960101,0.17352287,-0.43255287,-0.43633273
1326902545.41749597,0.17435290,-0.43196276,-0.43729100
1326902545.46956992,0.17374480,-0.43210173,-0.43457627
1326902545.51754212,0.17179281,-0.43357930,-0.43791640
1326902545.56933808,0.17472836,-0.43208331,-0.43739486
1326902545.61775351,0.17516349,-0.43174469,-0.43637520
1326902545.66950417,0.17372647,-0.43231067,-0.43719736
1326902545.71752977,0.17309278,-0.43373871,-0.43509918
